Location: Gälforsberget
(66.6500°N, 22.4167°E)
Time: 20:02:49
(UTC+00:00)

Cosmos 2297 - Pass Details

Date: 11 April 2026
Orbit: 833 x 859 km, 71.0° (Epoch: 16 May)

Event Time Altitude Azimuth Distance (km) Brightness Sun altitude
Rises 18:59:21 0° 300° (WNW) 3,437 9.3 -5.7°
Reaches altitude 10° 19:01:49 10° 302° (WNW) 2,502 8.0 -5.9°
Maximum altitude 19:07:36 76° 29° (NNE) 891 3.9 -6.4°
Drops below altitude 10° 19:13:22 10° 115° (ESE) 2,501 5.5 -6.8°
Enters shadow 19:13:59 - 116° (ESE) 2,732 5.7 -6.8°
